Location: Unspecified
(0.0000°N, 0.0000°E)
Time: 04:18:43
(UTC+00:00)

QB50P2 - Pass Details

Date: 25 March 2026
Orbit: 517 x 528 km, 98.1° (Epoch: 20 April)

Event Time Altitude Azimuth Distance (km) Brightness Sun altitude
Rises 05:26:16 0° 348° (NNW) 2,624 ? -9.9°
Reaches altitude 10° 05:28:45 10° 331° (NNW) 1,743 ? -9.3°
Maximum altitude 05:31:34 21° 282° (WNW) 1,222 ? -8.6°
Drops below altitude 10° 05:34:26 10° 233° (SW) 1,755 ? -7.9°
Sets 05:36:56 0° 216° (SW) 2,648 ? -7.3°
